Torna al catalogo

STARLINK-37144

AttivoComunicazioniVLEO
NORAD 68556·PAYLOAD·🇺🇸 United States

Lanciato Apr 2, 2026 da Cape Canaveral Space Force Station

Loading…

Prossimi Passaggi (prossime 24 ore)

TLE

AggiornatoSource: CelesTrak SupGP

Epoca: Sep 15, 2026, 04:02 UTC

1 68556C 26070Q   26258.16854167 -.00206080  00000+0 -60878-2 0  2582
2 68556  53.1575 198.5205 0001343  84.0714 158.0753 15.34497454    19

Traccia STARLINK-37144 in tempo reale con AllMySat

Download on the App Store